Disclaimer

Please do not use the information listed here in-flight or in-navigation, as they are not provided to us by the airports but are provided by volunteers, so they might be outdated.

Search


Regions


Airport information page

Radio informations:
Common traffic adv. frequency (CTAF) - 122.8 MHz

Airport informations:
Latitude: 26° 11' 54.79" N
Longitude: 036° 28' 34.97" E
Elevation: 66 feet - 20 meters
Operating hours: 24 hour operations
Operating agency: Civil government, landing fees and diplomatic clearance may be required
Timezone: UTC+3
Fuel: Jet A1, without icing nhibitor.

Runway information:
15/33 - 10007 x 148 feet< - >3050 x 45 meters

Recent METARs:
OEWJ 212100Z 36003KT CAVOK 19/13 Q1015 NOSIG
OEWJ 212100Z 36003KT CAVOK 19/13 Q1015 NOSIG
OEWJ 212200Z 05003KT CAVOK 19/13 Q1014 NOSIG

Airport on the map: